This demonstration page uses our WeatherBlox Daily Observations layout. Learn more.

41.55636, -103.73856

Hourly Observations for July 19, 2019

Temp ( °F °C ) Dew Point ( °F °C ) Humidity (%) Winds ( mph kmh ) Pressure ( in mb ) Visibility ( mi km ) Precip ( " mm )
12:53 am 00:53 Clear 68 20 56 13.3 65 65 Calm 29.62 1003 10 16.09344 0 0
1:53 am 01:53 Clear 65 18.3 55 12.8 70 70 Calm 29.62 1003 10 16.09344 0 0
2:53 am 02:53 Clear 63 17.2 56 13.3 78 78 Calm 29.62 1003 10 16.09344 0 0
3:53 am 03:53 Clear 59 15 55 12.8 87 87 Calm 29.62 1003 10 16.09344 0 0
4:53 am 04:53 Clear 59 15 53 11.7 81 81 N 3 6 29.65 1004 10 16.09344 0 0
5:53 am 05:53 Sunny 58 14.4 52 11.1 81 81 N 3 6 29.65 1004 10 16.09344 0 0
6:53 am 06:53 Sunny 62 16.7 55 12.8 78 78 WNW 3 6 29.68 1005 10 16.09344 0 0
7:53 am 07:53 Sunny 70 21.1 56 13.3 61 61 NW 5 7 29.68 1005 10 16.09344 0 0
8:53 am 08:53 Sunny 78 25.6 55 12.8 45 45 NW 9 15 29.68 1005 10 16.09344 0 0
9:53 am 09:53 Sunny 84 28.9 53 11.7 34 34 VRB 5 7 29.68 1005 10 16.09344 0 0
10:53 am 10:53 Sunny 87 30.6 53 11.7 31 31 N 7 11 29.71 1006 10 16.09344 0 0
11:53 am 11:53 Sunny 93 33.9 54 12.2 27 27 VRB 6 9 29.71 1006 10 16.09344 0 0
12:53 pm 12:53 Sunny 94 34.4 59 15 31 31 ESE 9 15 29.68 1005 10 16.09344 0 0
1:53 pm 13:53 Sunny 93 33.9 62 16.7 36 36 ESE 14 22 29.68 1005 10 16.09344 0 0
2:53 pm 14:53 Sunny 96 35.6 59 15 29 29 ESE 15 24 29.65 1004 10 16.09344 0 0
3:53 pm 15:53 Sunny 97 36.1 54 12.2 24 24 ESE 14 22 29.65 1004 10 16.09344 0 0
4:53 pm 16:53 Sunny 96 35.6 57 13.9 27 27 E 13 20 29.62 1003 10 16.09344 0 0
5:53 pm 17:53 Sunny 93 33.9 63 17.2 37 37 E 10 17 29.62 1003 10 16.09344 0 0
6:53 pm 18:53 Sunny 91 32.8 63 17.2 39 39 E 8 13 29.62 1003 10 16.09344 0 0
7:53 pm 19:53 Sunny 85 29.4 61 16.1 45 45 E 9 15 29.62 1003 10 16.09344 0 0
8:53 pm 20:53 Clear 83 28.3 63 17.2 51 51 SE 13 20 29.62 1003 10 16.09344 0 0
9:53 pm 21:53 Clear 77 25 65 18.3 66 66 E 3 6 29.65 1004 10 16.09344 0 0
10:53 pm 22:53 Clear 73 22.8 66 18.9 79 79 ESE 6 9 29.65 1004 10 16.09344 0 0
11:53 pm 23:53 Clear 73 22.8 67 19.4 81 81 SE 6 9 29.62 1003 10 16.09344 0 0

Powered by AerisWeather